"Pseudo-MPEC" for ZTF04n2

Created 2019 Jul 18 15:07:08 UT using Find_Orb

Click here for an explanation of pseudo-MPECs

 
 Astrometry: 
     ZTF04n2  C2019 07 09.23740817 28 34.07 -14 56 50.9    ~79I7 16.59RUNEOCPI41
     ZTF04n2  C2019 07 09.23775517 28 39.74 -14 55 36.1    ~79I7 16.59RUNEOCPI41
     ZTF04n2  C2019 07 09.23784717 28 41.55 -14 55 13.2    ~79Hq 16.53RUNEOCPI41
     ZTF04n2  C2019 07 09.23819417 28 47.30 -14 53 57.9    ~79Hq 16.53RUNEOCPI41
     ZTF04n2  C2019 07 09.29204917 44 08.49 -11 27 34.4    ~79Hq 16.53RUNEOCPI41
     ZTF04n2  C2019 07 09.29239617 44 14.48 -11 26 11.5    ~79Hq 16.53RUNEOCPI41
     ZTF04n2  C2019 07 09.29250617 44 16.32 -11 25 46.1    ~79Hq 15.56RUNEOCPI41
     ZTF04n2  C2019 07 09.29285317 44 22.52 -11 24 21.1    ~79Hq 15.56RUNEOCPI41
     ZTF04n2  C2019 07 09.31140717 49 54.28 -10 07 41.0    ~79I7 16.91gUNEOCPI41
     ZTF04n2  C2019 07 09.31175417 50 00.44 -10 06 16.8    ~79I7 16.91gUNEOCPI41
     ZTF04n2  C2019 07 10.45833422 58 30.65 +40 09 47.7    ~7B07 19.52gUNEOCPI41
     ZTF04n2  C2019 07 10.45868122 58 33.10 +40 09 56.4    ~7B07 19.52gUNEOCPI41
     ZTF04n2  C2019 07 10.47347623 00 09.72 +40 15 44.1    ~7ANb 18.66RUNEOCPI41
     ZTF04n2  C2019 07 10.47382323 00 12.00 +40 15 52.1    ~7ANb 18.66RUNEOCPI41

Station data:
(I41) Palomar Mountain--ZTF  (N33.357340 W116.859780)  US/California. 1.2-m
   f/2.44 Oschin Schmidt + CCD.

Orbital elements:  ZTF04n2
   Perigee 2019 Jul 9.504769 +/- 4.76e-5 TT = 12:06:52 (JD 2458674.004769)
Epoch 2019 Jul 10.0 TT = JDT 2458674.5                        AutoNEOCP
q378211.882 +/- 215                 (J2000 equator)
H   28.1  G 0.15                    Peri.    8.13606 +/- 0.0028
                                    Node   278.16990 +/- 0.00036
e  81.1266001 +/- 0.139             Incl.   42.59498 +/- 0.00008
From 14 observations 2019 July 9-10 (29.7 hr); mean residual 1".26
Residuals in arcseconds: 
190709 I41  1.5-  1.4-    190709 I41  .30+  .26+    190710 I41  .95-  .20-    
190709 I41  2.5-  1.6-    190709 I41  1.2-  1.1-    190710 I41  .83+  .09+    
190709 I41  1.7+  1.4+    190709 I41  .28-  .56-    190710 I41  .16-  .01+    
190709 I41  1.9+  1.5+    190709 I41  .43+  1.6+    190710 I41  .27+  .10+    
190709 I41  2.4+  1.7+    190709 I41  1.2-  1.7-    

Ephemerides (geocentric):
Date (UTC) HH   RA              Dec         delta   r     elong  mag " sig PA
---- -- -- --  -------------   -----------  ------ ------ -----  --- ---- ---
2019 07 18 15  01 04 49.416   +42 19 39.14  .04841 1.0122  83.8 24.9 2.09 108
2019 07 18 16  01 04 54.146   +42 19 35.45  .04863 1.0122  83.8 24.9 2.09 108
2019 07 18 17  01 04 58.837   +42 19 31.80  .04884 1.0122  83.9 24.9 2.09 108
2019 07 18 18  01 05 03.489   +42 19 28.19  .04906 1.0122  83.9 24.9 2.10 108
2019 07 18 19  01 05 08.102   +42 19 24.61  .04928 1.0122  83.9 25.0 2.10 108
2019 07 18 20  01 05 12.678   +42 19 21.07  .04950 1.0122  83.9 25.0 2.10 108
2019 07 18 21  01 05 17.215   +42 19 17.56  .04972 1.0122  83.9 25.0 2.11 108
2019 07 18 22  01 05 21.716   +42 19 14.09  .04994 1.0122  84.0 25.0 2.11 108
2019 07 18 23  01 05 26.180   +42 19 10.65  .05016 1.0123  84.0 25.0 2.11 108
2019 07 19 00  01 05 30.608   +42 19 07.25  .05037 1.0123  84.0 25.0 2.11 108
2019 07 19 01  01 05 35.000   +42 19 03.89  .05059 1.0123  84.0 25.0 2.12 108
2019 07 19 02  01 05 39.357   +42 19 00.56  .05081 1.0123  84.0 25.0 2.12 108
2019 07 19 03  01 05 43.679   +42 18 57.26  .05103 1.0123  84.1 25.0 2.12 108
2019 07 19 04  01 05 47.967   +42 18 54.00  .05125 1.0123  84.1 25.0 2.12 108
2019 07 19 05  01 05 52.221   +42 18 50.77  .05147 1.0123  84.1 25.0 2.13 108
2019 07 19 06  01 05 56.442   +42 18 47.57  .05168 1.0123  84.1 25.0 2.13 108
2019 07 19 07  01 06 00.630   +42 18 44.41  .05190 1.0123  84.2 25.0 2.13 108
2019 07 19 08  01 06 04.785   +42 18 41.27  .05212 1.0123  84.2 25.1 2.13 108
2019 07 19 09  01 06 08.907   +42 18 38.17  .05234 1.0123  84.2 25.1 2.14 108
2019 07 19 10  01 06 12.999   +42 18 35.11  .05256 1.0123  84.2 25.1 2.14 108
2019 07 19 11  01 06 17.058   +42 18 32.07  .05278 1.0123  84.2 25.1 2.14 108
2019 07 19 12  01 06 21.087   +42 18 29.07  .05299 1.0123  84.3 25.1 2.14 108
2019 07 19 13  01 06 25.085   +42 18 26.09  .05321 1.0123  84.3 25.1 2.15 108
2019 07 19 14  01 06 29.052   +42 18 23.15  .05343 1.0123  84.3 25.1 2.15 108
2019 07 19 15  01 06 32.990   +42 18 20.24  .05365 1.0124  84.3 25.1 2.15 108
2019 07 19 16  01 06 36.898   +42 18 17.36  .05387 1.0124  84.4 25.1 2.15 108
2019 07 19 17  01 06 40.777   +42 18 14.51  .05409 1.0124  84.4 25.1 2.16 108
2019 07 19 18  01 06 44.627   +42 18 11.68  .05430 1.0124  84.4 25.1 2.16 108
2019 07 19 19  01 06 48.449   +42 18 08.89  .05452 1.0124  84.4 25.1 2.16 108
2019 07 19 20  01 06 52.242   +42 18 06.13  .05474 1.0124  84.5 25.1 2.16 108
2019 07 19 21  01 06 56.008   +42 18 03.39  .05496 1.0124  84.5 25.2 2.17 108
2019 07 19 22  01 06 59.746   +42 18 00.69  .05518 1.0124  84.5 25.2 2.17 108
2019 07 19 23  01 07 03.457   +42 17 58.01  .05539 1.0124  84.5 25.2 2.17 108
2019 07 20 00  01 07 07.141   +42 17 55.36  .05561 1.0124  84.5 25.2 2.17 108
2019 07 20 01  01 07 10.798   +42 17 52.74  .05583 1.0125  84.6 25.2 2.18 108
2019 07 20 02  01 07 14.429   +42 17 50.14  .05605 1.0125  84.6 25.2 2.18 108
2019 07 20 03  01 07 18.034   +42 17 47.58  .05627 1.0125  84.6 25.2 2.18 108
2019 07 20 04  01 07 21.613   +42 17 45.04  .05648 1.0125  84.6 25.2 2.18 108
2019 07 20 05  01 07 25.167   +42 17 42.53  .05670 1.0125  84.7 25.2 2.19 108
2019 07 20 06  01 07 28.696   +42 17 40.04  .05692 1.0125  84.7 25.2 2.19 108
2019 07 20 07  01 07 32.200   +42 17 37.58  .05714 1.0125  84.7 25.2 2.19 108
2019 07 20 08  01 07 35.679   +42 17 35.15  .05735 1.0125  84.7 25.2 2.19 108
2019 07 20 09  01 07 39.135   +42 17 32.74  .05757 1.0126  84.8 25.2 2.19 108
2019 07 20 10  01 07 42.566   +42 17 30.36  .05779 1.0126  84.8 25.2 2.20 107
2019 07 20 11  01 07 45.973   +42 17 28.00  .05801 1.0126  84.8 25.2 2.20 107
2019 07 20 12  01 07 49.357   +42 17 25.67  .05822 1.0126  84.8 25.3 2.20 107
2019 07 20 13  01 07 52.717   +42 17 23.36  .05844 1.0126  84.9 25.3 2.20 107
2019 07 20 14  01 07 56.055   +42 17 21.08  .05866 1.0126  84.9 25.3 2.21 107